Погода в Старой Бесовке

Россия / Ульяновская область     54°17′44″N   49°57′58″E
темп.,
°C
ветер,
м/с
пор.,
м/с
влажн.,
%
обл.,
%
осадки,
мм/ч
давл.,
гПа
погр.,
м
13 мая, чт
чт1301:00+16вюв335589 0.0 102440
04:00+15вюв375761 0.0 1025130
07:00+17вюв4116090 0.0 1024325
10:00+22вюв694399 0.0 1024641
13:00+26юв683989 0.1 10231247
16:00+26ююв5942100 0.1 10221569
19:00+23юв5125274 0.0 1021432
22:00+20юв41357100 0.0 1022301
14 мая, пт
пт1401:00+19юв5155484 0.0 1021355
04:00+17ююв411569 0.0 1022246
07:00+18ююв386058 0.0 1022247
10:00+23ю464599 0.0 1022508
13:00+27ю6832100 0.0 10221137
16:00+29ю5930100 0.0 10212027
19:00+24ю375018 0.0 1021166
22:00+19ю310575 0.0 1022188
15 мая, сб
сб1501:00+17ю31052100 0.0 1021177
04:00+16ю3651100 0.0 102289
07:00+18ююв395472 0.0 1022227
10:00+25ю57365 0.0 1022549
13:00+29ю58245 0.0 10211526
16:00+29ююз582541 0.0 10201938
19:00+25ююз35445 0.0 102085
22:00+20ююв35460 0.0 102060
16 мая, вс
вс1601:00+19ю35475 0.0 101974
04:00+17ю34548 0.0 102060
07:00+20ююв38595 0.0 1020226
10:00+26ю58395 0.0 1019629
13:00+30ю68285 0.0 10192753
16:00+30юз692844 0.0 10183104
19:00+25зюз2447100 0.0 101756
22:00+21юз224793 0.0 101711
17 мая, пн
пн1701:00+19ююв3451100 0.0 101850
04:00+18юз2258100 0.0 101819
07:00+21юз135755 0.1 1019105
10:00+27ююз34385 0.1 1018631
13:00+30ююз33305 0.0 10181506
16:00+30ююз332844 0.0 10172896
19:00+26зсз36447 0.0 1017170
22:00+20з22615 0.1 101826